DateTimeUTC,F1_A11,F1_S11,BsB_S11,BsG_S11,BsR_S11,BbsB_S11,BbsG_S11,BbsR_S11,BaB_A11,BaG_A11,BaR_A11,Tu_S11,T_S11,Uu_S11,U_S11,P_S11,T1_A11
2021-01-31T06:00:00Z,00000200,21000000,,,,,,,-000.41,0000.02,-000.33,16.4,23.5,,00.0,0632.9,31.0
2021-01-31T06:01:00Z,00000200,21000000,,,,,,,0000.54,-000.63,0000.34,16.4,23.5,,00.0,0632.9,30.9
2021-01-31T06:02:00Z,00000200,21000000,,,,,,,-000.18,0000.32,-000.07,16.4,23.5,,00.0,0632.9,31.0
2021-01-31T06:03:00Z,00000200,61000000,,,,,,,0000.25,0000.19,0000.03,16.4,23.5,,00.0,0632.9,31.0
2021-01-31T06:04:00Z,00000200,41000000,0000.25,0000.17,0000.28,0000.07,0000.33,0000.08,-000.05,0000.47,0000.42,16.8,23.4,,00.0,0633.7,31.0
2021-01-31T06:05:00Z,00000200,01000000,0000.46,0000.12,0000.33,0000.41,0000.27,0000.19,-000.01,-000.33,-000.20,16.8,23.4,,00.0,0633.8,31.0
2021-01-31T06:06:00Z,00000200,01000000,0000.14,0000.20,0000.14,0000.53,0000.13,-000.08,-000.23,-000.10,-000.17,16.9,23.4,,00.0,0633.8,31.0
2021-01-31T06:07:00Z,00000200,01000000,-000.38,0000.09,0000.11,0000.22,0000.36,0000.06,-000.01,-000.27,-000.01,16.9,23.4,,00.0,0633.8,31.0
2021-01-31T06:08:00Z,00000200,01000000,0000.32,0000.15,0000.09,-000.31,-000.06,0000.06,0000.24,0000.62,0000.10,16.8,23.4,,00.0,0633.8,31.0
2021-01-31T06:09:00Z,00000200,01000000,0000.29,0000.20,-000.15,0000.26,-000.11,-000.07,-000.33,-000.25,-000.21,16.8,23.4,,00.0,0633.8,31.0
2021-01-31T06:10:00Z,00000200,01000000,-000.05,0000.22,-000.08,0000.37,0000.09,0000.04,-000.03,-000.20,0000.08,16.8,23.4,,00.0,0633.8,31.0
2021-01-31T06:11:00Z,00000200,01000000,0000.11,0000.09,0000.02,0000.02,0000.12,0000.04,-000.09,-000.05,-000.45,16.7,23.3,,00.0,0633.8,31.0
2021-01-31T06:12:00Z,00000200,01000000,-000.21,0000.25,-000.02,0000.10,0000.05,-000.11,0000.36,0000.19,0000.50,16.7,23.3,,00.0,0633.8,31.0
2021-01-31T06:13:00Z,00000200,01000000,0000.44,0000.19,0000.09,0000.01,0000.04,-000.11,-000.05,0000.22,-000.05,16.7,23.3,,00.0,0633.8,30.9
2021-01-31T06:14:00Z,00000200,01000000,-000.03,0000.08,0000.20,0000.61,0000.00,0000.07,-000.29,-000.47,-000.20,16.7,23.3,,00.0,0633.8,30.9
2021-01-31T06:15:00Z,00000200,01000000,0000.33,0000.08,0000.17,0000.35,0000.19,0000.10,0000.06,-000.17,0000.20,16.6,23.3,,00.0,0633.8,30.9
2021-01-31T06:16:00Z,00000200,01000000,0000.54,0000.07,-000.01,-000.42,-000.06,0000.04,0000.16,0000.29,0000.25,16.6,23.3,,00.0,0633.8,30.9
2021-01-31T06:17:00Z,00000200,01000000,-000.04,0000.17,0000.13,0000.60,0000.00,0000.20,0000.30,0000.32,0000.11,16.6,23.2,,00.0,0633.8,30.9
2021-01-31T06:18:00Z,00000200,01000000,-000.10,0000.19,-000.27,0000.21,0000.06,-000.24,-000.31,-000.17,-000.37,16.7,23.3,,00.0,0633.8,31.0
2021-01-31T06:19:00Z,00000200,01000000,0000.59,-000.04,0000.16,0000.47,-000.12,-000.24,0000.06,-000.34,0000.22,16.8,23.3,,00.0,0633.8,31.0
2021-01-31T06:20:00Z,00000200,01000000,-000.45,-000.09,-000.23,0000.03,-000.02,0000.01,-000.38,0000.07,-000.35,16.8,23.3,,00.0,0633.8,31.0
2021-01-31T06:21:00Z,00000200,01000000,0000.69,0000.24,0000.09,0000.09,-000.05,0000.09,0000.42,-000.14,-000.16,16.8,23.3,,00.0,0633.8,31.0
2021-01-31T06:22:00Z,00000200,01000000,-000.01,-000.07,0000.21,0000.53,0000.25,-000.16,-000.36,0000.05,0000.43,16.8,23.3,,00.0,0633.8,31.0
2021-01-31T06:23:00Z,00000200,01000000,-000.12,0000.18,0000.29,0000.66,0000.09,0000.13,-000.05,0000.31,-000.12,16.7,23.3,,00.0,0633.8,31.0
2021-01-31T06:24:00Z,00000200,01000000,0000.59,0000.17,0000.10,-000.20,-000.10,-000.29,0000.10,-000.02,0000.23,16.7,23.3,,00.0,0633.8,30.9
2021-01-31T06:25:00Z,00000200,01000000,0000.06,0000.30,0000.19,0000.05,-000.08,0000.05,-000.18,-000.17,-000.37,16.7,23.2,,00.0,0633.8,30.9
2021-01-31T06:26:00Z,00000200,01000000,0000.14,0000.15,-000.05,0000.32,0000.09,-000.10,0000.09,-000.22,-000.08,16.7,23.2,,00.0,0633.8,30.9
2021-01-31T06:27:00Z,00000200,01000000,0000.70,0000.46,0000.09,-000.01,-000.15,-000.06,0000.01,0000.24,-000.15,16.6,23.2,,00.0,0633.8,30.9
2021-01-31T06:28:00Z,00000200,01000000,0000.34,0000.05,0000.09,0000.40,0000.19,0000.08,-000.11,-000.41,0000.03,16.6,23.2,,00.0,0633.8,30.9
2021-01-31T06:29:00Z,00000200,01000000,-000.48,0000.22,-000.04,0000.28,-000.16,-000.20,-000.18,-000.04,0000.28,16.6,23.2,,00.0,0633.8,30.9
2021-01-31T06:30:00Z,00000200,01000000,-000.51,0000.15,0000.01,0000.41,-000.02,-000.10,0000.14,-000.08,-000.09,16.5,23.2,,00.0,0633.8,30.9
2021-01-31T06:31:00Z,00000200,01000000,0000.03,0000.04,0000.08,0000.09,0000.06,-000.02,-000.25,-000.07,-000.16,16.5,23.2,,00.0,0633.8,30.9
2021-01-31T06:32:00Z,00000200,01000000,-000.55,0000.26,-000.06,0000.29,-000.01,0000.11,0000.33,0000.69,0000.28,16.6,23.2,,00.0,0633.8,30.9
2021-01-31T06:33:00Z,00000200,01000000,-000.26,-000.03,-000.19,0000.10,-000.09,0000.16,0000.14,-000.00,0000.06,16.6,23.2,,00.0,0633.8,30.9
2021-01-31T06:34:00Z,00000200,01000000,0000.19,0000.33,0000.03,-000.18,-000.11,0000.10,0000.21,-000.23,0000.01,16.7,23.2,,00.0,0633.8,31.0
2021-01-31T06:35:00Z,00000200,01000000,0000.06,0000.12,0000.05,-000.13,0000.17,0000.03,-000.18,0000.03,0000.03,16.8,23.3,,00.0,0633.8,31.0
2021-01-31T06:36:00Z,00000200,01000000,0000.30,0000.11,-000.18,-000.35,0000.01,0000.27,-000.08,-000.00,0000.39,16.9,23.4,,00.0,0633.8,31.0
2021-01-31T06:37:00Z,00000200,01000000,0000.23,0000.40,-000.10,0000.11,0000.11,-000.13,0000.08,0000.15,-000.22,17.0,23.4,,00.0,0633.8,31.0
2021-01-31T06:38:00Z,00000200,01000000,0000.23,0000.24,0000.03,0000.36,0000.16,-000.06,-000.10,-000.32,0000.16,17.1,23.4,,00.0,0633.9,31.0
2021-01-31T06:39:00Z,00000200,01000000,-000.12,0000.23,0000.04,0000.53,0000.24,0000.03,-000.08,-000.04,-000.31,17.1,23.5,,00.0,0633.9,31.0
2021-01-31T06:40:00Z,00000200,01000000,0000.25,0000.42,-000.02,0000.31,0000.09,0000.01,-000.08,0000.21,0000.01,17.2,23.5,,00.0,0633.9,31.0
2021-01-31T06:41:00Z,00000200,01000000,0000.47,0000.23,-000.00,-000.03,0000.22,0000.14,-000.11,0000.04,0000.18,17.2,23.5,,00.0,0633.9,31.0
2021-01-31T06:42:00Z,00000200,01000000,0000.01,-000.02,-000.03,0000.10,0000.20,0000.23,-000.10,-000.21,-000.38,17.1,23.5,,00.0,0633.9,31.0
2021-01-31T06:43:00Z,00000200,01000000,0000.19,0000.19,-000.21,0000.02,-000.01,-000.07,-000.16,-000.04,0000.24,17.1,23.5,,00.0,0633.9,31.0
2021-01-31T06:44:00Z,00000200,01000000,0000.19,0000.32,0000.02,-000.12,0000.43,0000.25,-000.25,-000.21,-000.37,17.0,23.5,,00.0,0633.9,31.0
2021-01-31T06:45:00Z,00000200,01000000,0000.04,0000.01,-000.15,0000.45,-000.03,0000.04,0000.16,0000.11,0000.16,17.0,23.5,,00.0,0633.9,31.0
2021-01-31T06:46:00Z,00000200,01000000,-000.09,0000.09,0000.20,-000.01,0000.06,0000.10,0000.02,-000.40,-000.61,17.0,23.4,,00.0,0633.9,31.0
2021-01-31T06:47:00Z,00000200,01000000,0000.18,0000.35,0000.12,-000.68,0000.16,-000.16,-000.07,0000.45,0000.57,16.9,23.4,,00.0,0633.9,31.0
2021-01-31T06:48:00Z,00000200,01000000,0000.50,0000.07,0000.03,0000.61,0000.10,0000.04,-000.06,-000.24,-000.21,16.9,23.4,,00.0,0633.9,31.0
2021-01-31T06:49:00Z,00000200,01000000,0000.18,0000.18,-000.12,-000.09,-000.09,0000.12,-000.25,-000.01,-000.20,16.9,23.4,,00.0,0633.9,31.0
2021-01-31T06:50:00Z,00000200,01000000,-000.43,0000.10,0000.32,0000.00,-000.10,-000.38,0000.33,-000.12,0000.16,16.9,23.4,,00.0,0633.9,31.0
2021-01-31T06:51:00Z,00000200,01000000,0000.40,0000.10,0000.07,0000.09,0000.08,0000.03,-000.17,0000.05,0000.03,16.8,23.4,,00.0,0633.9,31.0
2021-01-31T06:52:00Z,00000200,01000000,-000.45,0000.20,0000.17,-000.51,0000.14,0000.34,-000.31,-000.32,-000.46,16.8,23.4,,00.0,0633.9,31.0
2021-01-31T06:53:00Z,00000200,01000000,-000.10,0000.09,-000.16,0000.25,0000.10,0000.13,-000.04,0000.01,0000.15,16.8,23.4,,00.0,0633.9,30.9
2021-01-31T06:54:00Z,00000200,01000000,0000.13,0000.07,0000.25,0000.01,0000.17,0000.07,0000.58,0000.00,0000.14,16.7,23.3,,00.0,0633.9,30.9
2021-01-31T06:55:00Z,00000200,01000000,-000.48,0000.16,-000.27,0000.17,0000.06,0000.07,-000.34,0000.13,-000.02,16.7,23.3,,00.0,0633.9,30.9
2021-01-31T06:56:00Z,00000200,01000000,0000.27,-000.13,0000.18,-000.30,0000.02,-000.02,-000.06,-000.15,0000.12,16.7,23.3,,00.0,0633.9,30.9
2021-01-31T06:57:00Z,00000200,41000000,,,,,,,0000.66,0000.65,0000.34,16.7,23.3,,00.0,0633.8,30.9
2021-01-31T06:58:00Z,00000200,61000000,,,,,,,-000.39,-000.39,-000.28,16.3,23.4,,00.0,0632.9,30.9
2021-01-31T06:59:00Z,00000200,21000000,,,,,,,-000.36,-000.13,-000.36,16.3,23.5,,00.0,0632.9,30.9
